{"data":{"norad_id":59425,"epoch":"2026-09-21T02:04:36.585984Z","epoch_age_seconds":114186,"freshness":"FRESH","line1":"1 59425U 24065E   26264.08653456 -.00000279  00000+0  25545-5 0  9993","line2":"2 59425  53.1581 210.5563 0000755  87.9787 272.1318 15.69709308142161","mean_motion":15.69709308,"eccentricity":7.55e-5,"inclination_deg":53.1581,"raan_deg":210.5563,"arg_perigee_deg":87.9787,"mean_anomaly_deg":272.1318,"bstar":2.5545e-6,"rev_number":14216,"period_min":91.736730658413,"perigee_km":359.22002179696,"apogee_km":360.23743952229,"semimajor_km":6737.8657306596,"source":"CELESTRAK","updated_at":"2026-09-22T09:00:48.939243Z"}}